Theta_e
311 310 310 310 309 310 309 311 308 310 309 312 323 325 330 334 340 340 342 341 345 345 344 343 343 347 347 347 348 349 348 347 348 349 349 349 347 345 344 343 342 341 341 341
309 311 309 308 309 310 311 311 312 313 312 313 328 331 328 335 339 339 340 341 345 343 340 341 346 347 347 348 349 349 347 346 351 350 349 349 346 342 343 340 340 340 339 337
305 309 309 305 309 309 311 314 314 310 316 324 323 329 330 334 339 338 339 341 344 340 342 346 346 349 348 349 353 351 351 350 350 350 350 348 347 343 339 338 338 338 337 337
306 309 299 311 316 315 312 313 316 317 319 324 330 333 334 338 341 341 340 343 342 341 344 348 349 349 349 348 349 348 347 347 348 350 349 350 346 343 340 336 335 334 334 334
303 302 307 310 313 313 311 312 318 317 321 327 331 333 334 340 342 344 343 346 344 345 346 345 345 345 347 346 347 345 342 340 339 343 346 344 344 340 339 335 334 333 334 332
305 300 299 310 317 322 319 310 321 323 324 326 327 315 331 341 347 347 348 348 344 341 340 339 337 341 341 339 338 335 332 333 333 332 338 340 339 338 338 335 334 332 331 330
302 302 305 315 324 326 308 315 333 333 331 328 326 336 340 343 342 343 342 340 339 339 337 336 335 335 334 333 327 329 329 328 326 322 322 331 333 334 334 334 331 330 325 325
303 301 299 321 322 315 330 335 336 336 336 338 339 335 334 333 332 333 334 335 338 335 333 333 333 333 329 324 324 325 324 323 320 318 316 318 320 322 322 328 327 325 323 323
309 307 328 329 332 335 336 335 337 338 337 338 333 331 326 325 328 331 334 335 336 332 327 327 328 329 325 322 323 323 321 319 317 315 313 313 313 315 313 313 319 316 307 307
313 317 324 327 332 336 336 337 339 338 338 335 333 330 326 325 326 327 330 331 331 330 327 324 325 325 324 324 324 323 319 315 313 311 309 310 311 312 310 309 309 306 307 310
314 324 324 329 331 333 335 337 337 339 338 336 334 329 327 324 325 326 327 328 327 326 324 321 323 323 324 323 324 322 320 318 315 311 307 304 302 304 307 304 308 310 311 312
313 324 324 326 331 333 333 333 336 334 333 335 333 329 326 325 326 326 325 325 324 323 322 321 322 322 323 324 324 323 320 319 315 314 312 310 308 304 298 298 297 296 298 303
317 324 327 329 330 332 332 332 334 334 333 330 329 327 327 325 326 322 324 322 321 321 321 323 322 322 323 324 325 322 319 319 316 316 317 315 313 311 306 299 295 293 293 294
321 322 323 323 324 329 331 332 330 333 330 328 328 328 326 326 324 324 321 322 323 324 323 323 322 321 323 324 324 323 321 307 319 317 316 315 317 317 316 314 311 308 295 300
318 320 321 324 325 327 329 329 329 328 327 327 328 327 326 325 325 323 323 325 324 323 323 323 322 322 324 324 318 314 312 311 311 311 310 309 311 310 310 311 310 309 307 299
317 319 320 319 320 322 323 325 327 327 326 326 327 327 329 329 327 324 323 324 322 320 322 322 322 322 317 316 316 313 312 310 311 311 311 311 312 311 309 309 310 309 308 308
314 314 315 317 320 317 318 321 326 327 328 328 328 327 327 326 324 322 321 322 323 322 324 323 319 316 316 317 315 312 311 312 307 313 313 313 312 311 311 311 310 309 310 303
318 318 319 319 317 318 316 317 319 328 327 329 325 324 325 324 322 322 322 322 322 322 321 319 317 316 317 317 316 314 314 313 315 314 314 315 314 316 315 314 313 311 309 305
317 317 318 318 320 320 319 319 320 325 329 326 326 324 324 325 323 322 321 320 320 318 316 317 316 317 318 317 316 316 315 315 314 315 317 310 314 315 314 314 313 313 313 309
316 317 318 318 319 320 320 319 321 323 325 329 326 326 325 324 323 322 322 320 321 318 318 315 315 317 318 317 314 317 316 317 316 315 314 315 315 315 314 307 313 313 313 312
315 317 318 318 319 320 322 322 319 324 326 329 327 326 324 323 323 322 320 317 321 317 318 313 318 318 319 317 315 317 317 317 317 317 315 313 313 315 314 314 313 313 312 314
316 316 317 318 321 322 324 323 322 324 326 329 327 325 323 321 322 321 324 318 318 310 315 315 318 312 315 314 318 316 317 317 314 314 314 314 313 313 313 312 312 313 313 313
313 316 318 319 321 324 325 325 325 327 327 327 325 322 323 322 324 319 317 322 321 314 318 314 308 309 310 318 315 310 308 312 312 312 312 311 311 312 312 311 310 310 310 310
313 316 317 322 327 326 323 327 327 328 327 326 326 326 325 324 320 317 316 311 307 311 312 310 308 306 308 312 311 310 309 308 305 306 306 303 309 310 310 309 308 309 309 307
315 317 318 318 317 317 318 318 316 315 316 317 316 318 318 316 314 311 314 313 306 310 310 304 305 306 311 310 309 309 309 309 308 307 308 308 309 309 309 308 308 308 308 309
315 315 316 316 316 317 316 317 313 312 311 308 309 309 309 309 310 311 310 311 311 308 311 311 310 310 309 309 309 309 309 310 309 310 307 309 310 310 310 309 309 309 309 309
315 311 318 314 316 316 314 312 312 312 313 311 307 309 309 309 308 308 307 310 311 311 312 312 311 310 312 312 310 310 310 309 302 308 309 309 309 308 308 308 308 307 306 304
Wind_Speed
17 18 12 11 12 14 13 15 18 9 8 19 6 7 11 10 13 14 15 15 14 13 11 11 10 10 7 7 7 6 5 7 7 5 4 7 4 5 6 6 7 8 7 6
16 15 14 13 12 14 16 13 19 22 6 33 8 8 4 8 14 14 15 15 15 14 12 11 11 10 8 7 6 3 3 6 4 4 5 8 4 4 8 5 5 6 7 7
12 17 20 14 15 15 16 14 16 12 6 8 8 9 3 6 11 14 14 14 14 12 11 11 10 7 6 4 4 1 5 8 5 4 5 8 5 6 8 5 5 5 6 6
11 14 17 9 8 9 11 15 15 13 6 9 9 9 6 2 8 12 13 15 13 11 9 9 9 4 6 4 5 5 3 6 6 3 4 8 6 6 8 5 4 4 5 5
12 12 15 15 7 10 11 13 15 13 7 9 10 8 5 3 5 8 14 12 12 10 8 6 6 5 5 5 2 0 3 1 4 7 5 6 6 8 8 6 4 4 5 5
12 14 18 14 9 7 3 12 11 14 6 7 6 7 10 5 11 14 15 13 12 11 9 6 4 3 4 5 4 6 6 6 7 7 4 3 5 6 7 6 6 4 7 7
13 14 12 16 7 2 11 3 10 9 10 4 5 7 11 9 7 9 11 13 11 11 9 7 5 4 7 6 7 6 5 6 7 8 9 6 5 4 3 7 7 7 7 6
13 16 18 3 7 10 7 5 11 10 9 12 12 10 9 10 8 8 10 12 10 9 8 6 5 6 8 7 5 6 6 8 9 9 7 7 8 6 7 3 9 8 5 6
6 8 8 6 8 6 5 6 5 6 5 7 9 11 11 9 9 9 9 8 8 9 8 7 6 6 8 6 6 6 8 10 10 10 9 7 7 7 6 7 6 6 5 4
7 7 9 6 6 11 8 8 7 4 2 5 11 12 13 10 9 7 8 8 7 8 7 7 6 7 7 6 6 8 9 9 9 9 9 8 6 5 4 4 4 4 4 5
11 8 1 10 9 9 7 6 4 5 6 5 10 10 12 11 9 7 6 6 6 6 6 6 7 7 7 6 6 7 8 9 9 8 9 8 7 5 5 4 2 3 3 3
3 10 8 5 8 7 6 6 6 5 4 6 9 10 12 9 9 9 7 6 6 7 7 7 6 8 7 6 6 7 7 7 6 6 6 6 6 7 13 8 10 9 9 4
7 9 6 5 2 5 5 5 3 7 3 6 8 10 11 9 8 8 8 8 8 8 7 7 8 7 6 6 6 7 8 8 7 7 7 7 7 6 7 6 9 8 7 7
5 7 9 2 6 6 4 3 3 10 7 7 9 9 10 9 11 10 8 9 9 9 9 9 9 9 7 7 7 7 6 4 5 4 4 4 4 6 8 8 8 7 2 3
8 4 8 8 5 2 3 1 3 10 8 8 8 9 10 11 11 10 9 10 10 9 9 9 9 9 9 8 9 9 7 5 5 5 5 3 4 4 4 4 5 8 7 6
12 10 12 6 6 6 5 4 2 6 10 7 9 10 10 9 12 10 9 9 9 8 9 9 10 10 10 10 8 8 7 7 5 6 5 5 4 5 5 4 2 4 5 8
10 9 9 6 3 4 5 10 5 6 9 9 8 6 4 7 10 9 9 8 7 8 9 10 11 11 10 9 9 7 7 5 4 4 4 4 4 4 4 3 2 2 2 8
9 9 10 9 4 6 6 9 10 8 10 9 7 7 4 8 7 9 10 9 8 9 9 11 11 11 10 9 8 7 7 6 3 5 4 3 3 0 1 1 0 0 3 7
9 10 11 11 9 8 5 9 10 5 10 10 11 9 10 10 11 10 8 8 10 11 11 11 9 9 9 4 3 5 5 4 5 4 2 3 7 7 4 4 4 3 2 5
10 9 11 12 12 11 9 8 6 9 9 12 9 10 11 12 10 10 9 9 10 8 13 13 13 10 9 6 7 7 5 2 3 3 5 7 7 7 7 3 6 6 5 4
13 11 10 13 11 10 12 11 10 7 10 15 12 11 12 12 8 9 9 8 9 14 12 14 10 9 9 9 7 6 1 2 3 3 3 4 7 8 6 9 4 6 5 3
14 11 10 12 11 11 12 12 8 8 10 9 10 10 12 10 7 9 10 7 9 10 11 11 6 9 7 4 3 2 3 5 3 6 5 4 5 5 5 6 6 6 4 3
12 12 10 11 13 13 7 8 6 5 7 8 10 12 10 8 8 7 5 8 11 8 3 8 9 11 5 2 5 7 11 9 9 9 9 8 9 5 5 6 7 7 7 7
10 10 10 6 2 3 5 7 8 7 10 12 10 10 8 8 8 6 9 14 16 14 11 10 15 19 13 9 9 9 8 9 6 6 7 9 6 5 5 4 6 7 8 10
8 4 4 5 6 6 9 9 11 12 13 13 12 10 12 8 8 7 11 11 13 13 11 12 16 14 7 5 5 4 1 2 3 7 6 7 8 6 6 7 8 10 9 9
5 5 5 7 6 5 7 8 8 8 9 10 9 8 7 7 7 9 9 9 8 8 7 6 6 6 4 3 4 6 7 6 7 7 6 6 8 10 11 12 11 11 11 12
9 8 9 7 6 8 9 10 9 8 9 10 11 7 9 7 7 8 8 6 6 6 6 5 5 5 5 7 6 3 3 7 7 7 7 8 8 8 8 8 9 10 11 11
Wind_Direction
260 278 275 266 251 220 229 239 255 273 68 321 34 75 144 171 157 175 170 171 158 156 147 149 166 175 172 167 152 152 180 197 167 174 134 108 92 76 71 47 50 61 46 25
279 269 260 257 246 261 275 235 247 259 202 184 137 93 134 169 166 185 176 176 159 154 170 178 172 174 168 154 162 190 220 239 192 144 138 135 139 127 95 63 71 59 62 51
257 252 248 231 242 257 251 244 251 268 297 6 114 96 112 177 174 184 184 178 160 162 177 166 163 176 163 137 70 139 268 252 243 154 177 160 173 151 117 95 95 78 74 56
268 273 255 244 268 305 249 260 254 252 241 207 78 88 82 155 179 182 179 173 159 162 167 163 113 100 91 172 199 214 261 325 331 33 303 169 174 122 125 128 118 105 86 81
255 259 274 265 182 234 246 259 263 245 229 105 92 108 117 131 166 182 165 167 151 133 127 118 123 131 154 180 186 218 76 338 326 327 328 169 159 139 142 139 146 127 103 96
252 253 259 275 331 67 299 266 307 318 136 109 129 264 84 129 78 83 91 109 119 111 118 106 95 148 150 75 55 51 22 12 5 349 317 176 130 158 140 140 152 140 109 76
231 254 249 287 51 302 227 353 355 12 3 0 68 50 103 111 107 110 121 121 123 148 130 123 118 100 89 79 58 34 33 44 39 29 25 33 77 76 134 158 134 124 116 100
234 246 243 36 285 261 33 12 359 2 18 70 93 104 113 98 124 121 124 140 137 121 116 102 95 103 95 81 70 62 57 57 51 46 40 35 57 46 36 69 127 129 146 105
261 235 81 43 38 35 358 358 348 352 20 91 118 113 117 123 130 145 142 130 122 114 107 88 67 83 99 84 78 74 67 63 64 61 55 41 55 57 56 41 91 87 76 101
306 176 82 35 68 40 10 358 336 337 75 121 115 130 130 133 135 135 135 132 116 127 116 102 98 94 100 98 91 85 81 75 69 66 60 45 45 49 62 73 88 91 106 129
257 76 303 80 36 18 6 12 5 47 52 94 122 136 136 139 135 129 105 102 101 120 110 118 115 100 97 96 97 99 97 92 86 82 81 73 58 37 66 42 42 117 125 118
36 17 347 24 12 7 2 21 20 61 79 82 130 139 131 136 135 143 134 135 128 122 128 125 116 105 107 113 118 108 104 98 92 101 101 104 102 88 53 53 59 62 65 91
27 342 344 295 357 345 344 351 35 84 89 115 126 138 129 148 141 140 143 138 141 140 139 141 123 115 124 125 123 109 110 128 127 152 133 127 127 122 105 66 66 63 80 80
335 313 277 5 4 15 343 64 211 93 106 124 129 132 136 147 147 145 150 148 146 151 146 141 133 128 135 136 138 133 109 357 136 124 120 129 129 145 149 153 133 125 102 129
289 317 308 325 289 358 338 197 172 130 130 140 149 144 148 157 151 135 154 154 152 149 150 148 140 134 139 130 127 145 155 119 110 92 72 69 95 82 80 83 101 116 131 183
309 289 280 289 30 358 326 273 197 151 131 163 157 163 172 140 120 141 152 157 157 159 151 145 141 131 140 142 149 114 87 43 114 135 145 111 99 91 93 96 150 144 191 149
289 272 259 353 133 265 329 318 254 145 155 169 170 127 126 126 136 149 161 167 148 157 151 147 141 147 144 151 141 137 127 146 328 138 106 85 77 67 51 51 75 74 152 71
290 295 292 282 209 242 195 293 289 141 173 166 130 124 160 130 169 168 161 141 155 160 156 144 152 151 160 157 164 149 138 185 171 101 115 185 38 79 239 11 40 232 164 130
291 287 288 285 277 261 275 206 232 187 171 172 174 162 169 158 175 168 151 158 182 158 150 154 127 172 159 139 260 174 160 166 159 173 230 135 218 222 234 225 239 225 250 164
284 286 278 272 260 263 247 252 209 207 154 162 159 177 176 163 160 151 161 193 174 157 151 139 173 166 167 161 276 260 168 244 314 248 25 333 336 326 359 321 296 301 286 221
296 291 293 277 270 262 256 247 226 188 181 169 175 169 154 149 166 154 182 180 152 137 152 156 193 164 185 160 224 256 288 284 358 49 272 345 348 360 332 305 294 206 237 301
288 294 290 290 290 270 248 249 226 201 187 170 163 135 140 152 175 154 199 143 136 165 152 180 176 46 92 152 228 348 70 291 16 23 347 334 337 301 320 342 347 324 325 343
271 283 283 279 270 265 207 217 192 140 160 147 137 137 152 170 168 158 156 149 137 182 126 86 85 76 41 185 88 50 25 25 24 13 15 358 323 331 346 357 357 307 305 320
267 269 265 252 237 146 79 48 95 91 101 87 112 134 144 126 93 72 86 66 70 81 77 78 68 58 61 59 49 44 48 43 13 6 306 282 302 308 305 334 322 333 349 344
244 186 123 134 115 94 93 88 84 76 74 78 74 70 75 58 91 68 71 81 74 93 93 73 77 72 75 70 63 57 27 274 263 253 279 316 317 347 353 338 344 358 334 358
159 117 97 89 91 99 102 100 98 93 91 83 73 75 76 82 85 98 97 106 101 110 106 101 97 99 108 142 192 211 225 234 252 255 275 315 1 2 7 2 357 14 5 22
56 56 87 80 75 89 89 82 77 80 92 102 102 82 89 92 94 97 103 108 105 106 121 134 147 171 199 214 199 189 69 86 45 355 11 23 24 14 15 6 12 19 13 29